When you browse on this site, cookies collect data to enhance your experience and personalize the content and advertising you see.
Visit our Privacy Policy to learn more. By continuing to use the site, you agree to this use of cookies and data.
  • En España
  • Lista de países
  • Para 7 días
  • Temperatura del agua
  • Mapa Satelital
  • El tiempo en el mapa
  • Informadores
  • user-avatar
    Iniciar sesión

    Tiempo cada hora Benguela

    Hoy, 25 Junio, Martes

    Tiempo Temperatura Precipitaciones Viento Presión Humedad
    00:00 +18°C° 0 mm 2 mps 760 mmHg 86%
    01:00 +18°C° 0 mm 2 mps 760 mmHg 87%
    02:00 +18°C° 0 mm 2 mps 760 mmHg 87%
    03:00 +17°C° 0 mm 2 mps 760 mmHg 87%
    04:00 +17°C° 0 mm 2 mps 760 mmHg 86%
    05:00 +18°C° 0 mm 1 mps 760 mmHg 83%
    06:00 +19°C° 0 mm 1 mps 761 mmHg 79%
    07:00 +20°C° 0 mm 1 mps 761 mmHg 74%
    08:00 +23°C° 0 mm 1 mps 761 mmHg 64%
    09:00 +25°C° 0 mm 1 mps 761 mmHg 54%
    10:00 +28°C° 0 mm 1 mps 761 mmHg 44%
    11:00 +28°C° 0 mm 2 mps 760 mmHg 46%
    12:00 +29°C° 0 mm 3 mps 759 mmHg 48%
    13:00 +30°C° 0 mm 4 mps 759 mmHg 49%
    14:00 +29°C° 0 mm 4 mps 758 mmHg 51%
    15:00 +29°C° 0 mm 4 mps 758 mmHg 53%
    16:00 +28°C° 0 mm 4 mps 758 mmHg 55%
    17:00 +26°C° 0 mm 4 mps 758 mmHg 67%
    18:00 +22°C° 0 mm 3 mps 759 mmHg 79%
    19:00 +20°C° 0 mm 3 mps 760 mmHg 91%
    20:00 +19°C° 0 mm 2 mps 760 mmHg 92%
    21:00 +19°C° 0 mm 2 mps 760 mmHg 93%
    22:00 +19°C° 0 mm 2 mps 760 mmHg 93%
    23:00 +19°C° 0 mm 1 mps 761 mmHg 92%

    Mañana, 26 Junio, Miércoles

    Tiempo Temperatura Precipitaciones Viento Presión Humedad
    00:00 +19°C° 0 mm 1 mps 761 mmHg 91%
    01:00 +18°C° 0 mm 1 mps 761 mmHg 90%
    02:00 +18°C° 0 mm 1 mps 760 mmHg 89%
    03:00 +18°C° 0 mm 1 mps 760 mmHg 88%
    04:00 +18°C° 0 mm 1 mps 760 mmHg 87%
    05:00 +19°C° 0 mm 1 mps 761 mmHg 85%
    06:00 +19°C° 0 mm 1 mps 761 mmHg 82%
    07:00 +19°C° 0 mm 1 mps 761 mmHg 79%
    08:00 +21°C° 0 mm 2 mps 761 mmHg 69%
    09:00 +25°C° 0 mm 2 mps 761 mmHg 58%
    10:00 +28°C° 0 mm 2 mps 761 mmHg 48%
    11:00 +28°C° 0 mm 3 mps 761 mmHg 49%
    12:00 +29°C° 0 mm 3 mps 760 mmHg 50%
    13:00 +29°C° 0 mm 3 mps 760 mmHg 51%
    14:00 +29°C° 0 mm 3 mps 760 mmHg 54%
    15:00 +28°C° 0 mm 4 mps 759 mmHg 58%
    16:00 +27°C° 0 mm 4 mps 759 mmHg 62%
    17:00 +25°C° 0 mm 3 mps 760 mmHg 71%
    18:00 +22°C° 0 mm 3 mps 761 mmHg 80%
    19:00 +20°C° 0 mm 2 mps 761 mmHg 89%
    20:00 +19°C° 0 mm 2 mps 762 mmHg 91%
    21:00 +19°C° 0 mm 3 mps 762 mmHg 92%
    22:00 +18°C° 0 mm 3 mps 762 mmHg 94%
    23:00 +18°C° 0 mm 3 mps 762 mmHg 94%

    Pasado mañana, 27 Junio, Jueves

    Tiempo Temperatura Precipitaciones Viento Presión Humedad
    00:00 +18°C° 0 mm 3 mps 762 mmHg 94%
    01:00 +17°C° 0 mm 3 mps 762 mmHg 94%
    02:00 +17°C° 0 mm 2 mps 761 mmHg 93%
    03:00 +17°C° 0 mm 2 mps 761 mmHg 93%
    04:00 +18°C° 0 mm 1 mps 761 mmHg 92%
    05:00 +18°C° 0 mm 1 mps 761 mmHg 91%
    06:00 +18°C° 0 mm 1 mps 762 mmHg 89%
    07:00 +19°C° 0 mm 1 mps 762 mmHg 88%
    08:00 +21°C° 0 mm 1 mps 762 mmHg 76%
    09:00 +24°C° 0 mm 1 mps 762 mmHg 64%
    10:00 +27°C° 0 mm 1 mps 761 mmHg 52%
    11:00 +27°C° 0 mm 2 mps 761 mmHg 50%
    12:00 +28°C° 0 mm 3 mps 760 mmHg 49%
    13:00 +29°C° 0 mm 4 mps 760 mmHg 48%
    14:00 +29°C° 0 mm 4 mps 759 mmHg 51%
    15:00 +28°C° 0 mm 5 mps 759 mmHg 55%
    16:00 +27°C° 0 mm 5 mps 759 mmHg 59%
    17:00 +25°C° 0 mm 5 mps 759 mmHg 69%
    18:00 +21°C° 0 mm 4 mps 760 mmHg 79%
    19:00 +19°C° 0 mm 3 mps 760 mmHg 89%
    20:00 +19°C° 0 mm 3 mps 761 mmHg 91%
    21:00 +18°C° 0 mm 3 mps 761 mmHg 93%
    22:00 +18°C° 0 mm 3 mps 761 mmHg 94%
    23:00 +17°C° 0 mm 2 mps 761 mmHg 93%

    28 Junio, Viernes

    Tiempo Temperatura Precipitaciones Viento Presión Humedad
    00:00 +17°C° 0 mm 2 mps 761 mmHg 93%
    01:00 +18°C° 0 mm 1 mps 761 mmHg 92%
    02:00 +18°C° 0 mm 1 mps 761 mmHg 91%
    03:00 +18°C° 0 mm 1 mps 760 mmHg 89%
    04:00 +18°C° 0 mm 1 mps 760 mmHg 88%
    05:00 +18°C° 0 mm 1 mps 760 mmHg 87%
    06:00 +18°C° 0 mm 1 mps 761 mmHg 86%
    07:00 +18°C° 0 mm 1 mps 761 mmHg 85%
    08:00 +21°C° 0 mm 1 mps 761 mmHg 73%
    09:00 +24°C° 0 mm 1 mps 761 mmHg 62%
    10:00 +27°C° 0 mm 1 mps 761 mmHg 50%
    11:00 +28°C° 0 mm 2 mps 760 mmHg 50%
    12:00 +29°C° 0 mm 3 mps 760 mmHg 49%
    13:00 +30°C° 0 mm 4 mps 759 mmHg 49%
    14:00 +29°C° 0 mm 4 mps 759 mmHg 53%
    15:00 +28°C° 0 mm 4 mps 758 mmHg 57%
    16:00 +27°C° 0 mm 4 mps 758 mmHg 61%
    17:00 +25°C° 0 mm 3 mps 759 mmHg 71%
    18:00 +22°C° 0 mm 3 mps 760 mmHg 81%
    19:00 +19°C° 0 mm 2 mps 760 mmHg 91%
    20:00 +19°C° 0 mm 2 mps 761 mmHg 92%
    21:00 +19°C° 0 mm 2 mps 761 mmHg 94%
    22:00 +18°C° 0 mm 2 mps 762 mmHg 95%
    23:00 +18°C° 0 mm 2 mps 761 mmHg 95%

    29 Junio, Sábado

    Tiempo Temperatura Precipitaciones Viento Presión Humedad
    00:00 +19°C° 0 mm 1 mps 761 mmHg 95%
    01:00 +19°C° 0 mm 1 mps 761 mmHg 94%
    02:00 +18°C° 0 mm 1 mps 761 mmHg 94%
    03:00 +18°C° 0 mm 1 mps 761 mmHg 94%
    04:00 +18°C° 0 mm 1 mps 760 mmHg 93%
    05:00 +18°C° 0 mm 1 mps 761 mmHg 93%
    06:00 +19°C° 0 mm 1 mps 761 mmHg 92%
    07:00 +19°C° 0 mm 1 mps 762 mmHg 91%
    08:00 +21°C° 0 mm 2 mps 762 mmHg 80%
    09:00 +24°C° 0 mm 2 mps 762 mmHg 70%
    10:00 +27°C° 0 mm 2 mps 762 mmHg 60%
    11:00 +28°C° 0 mm 3 mps 761 mmHg 57%
    12:00 +29°C° 0 mm 3 mps 760 mmHg 54%
    13:00 +30°C° 0 mm 3 mps 760 mmHg 51%
    14:00 +29°C° 0 mm 3 mps 759 mmHg 55%
    15:00 +28°C° 0 mm 3 mps 759 mmHg 58%
    16:00 +27°C° 0 mm 3 mps 758 mmHg 62%
    17:00 +25°C° 0 mm 3 mps 759 mmHg 71%
    18:00 +23°C° 0 mm 2 mps 760 mmHg 80%
    19:00 +20°C° 0 mm 2 mps 760 mmHg 89%
    20:00 +20°C° 0 mm 2 mps 761 mmHg 90%
    21:00 +19°C° 0 mm 2 mps 761 mmHg 91%
    22:00 +20°C° 0 mm 1 mps 762 mmHg 92%
    23:00 +19°C° 0 mm 2 mps 762 mmHg 92%

    30 Junio, Domingo

    Tiempo Temperatura Precipitaciones Viento Presión Humedad
    00:00 +19°C° 0 mm 2 mps 762 mmHg 92%
    01:00 +19°C° 0 mm 3 mps 761 mmHg 92%
    02:00 +19°C° 0 mm 2 mps 761 mmHg 91%
    03:00 +19°C° 0 mm 2 mps 761 mmHg 90%
    04:00 +20°C° 0 mm 1 mps 761 mmHg 89%
    05:00 +20°C° 0 mm 1 mps 761 mmHg 89%
    06:00 +20°C° 0 mm 1 mps 762 mmHg 88%
    07:00 +20°C° 0 mm 1 mps 762 mmHg 88%
    08:00 +23°C° 0 mm 1 mps 762 mmHg 77%
    09:00 +25°C° 0 mm 1 mps 762 mmHg 65%
    10:00 +28°C° 0 mm 2 mps 762 mmHg 54%
    11:00 +29°C° 0 mm 3 mps 761 mmHg 54%
    12:00 +29°C° 0 mm 3 mps 761 mmHg 54%
    13:00 +30°C° 0 mm 4 mps 760 mmHg 54%
    14:00 +29°C° 0 mm 3 mps 760 mmHg 56%
    15:00 +29°C° 0 mm 3 mps 759 mmHg 58%
    16:00 +28°C° 0 mm 2 mps 759 mmHg 60%
    17:00 +26°C° 0 mm 2 mps 759 mmHg 70%
    18:00 +24°C° 0 mm 1 mps 760 mmHg 80%
    19:00 +22°C° 0 mm 1 mps 760 mmHg 89%
    20:00 +21°C° 0 mm 1 mps 760 mmHg 89%
    21:00 +21°C° 0 mm 1 mps 761 mmHg 90%
    22:00 +21°C° 0 mm 1 mps 761 mmHg 90%
    23:00 +21°C° 0 mm 1 mps 761 mmHg 88%
    Mostrar más